Temp
60 60 60 58 56 56 55 55 54 53 52 51 50 50 50 50 50 51 52 51 52 50 50 50 50 50 51 51 49 51 50 51
59 59 58 56 56 56 56 54 53 52 50 50 49 47 48 49 50 50 50 50 51 49 48 48 48 47 47 49 48 47 47 50
58 58 57 56 54 54 54 54 53 52 50 49 48 47 47 48 48 49 49 50 50 51 48 48 47 47 47 46 45 45 45 47
56 57 56 56 54 53 54 53 52 51 50 49 49 49 48 48 47 47 48 49 50 49 49 48 47 46 45 45 45 45 42 44
57 57 56 55 53 51 52 52 51 51 51 49 48 46 46 45 45 45 47 49 49 50 49 48 47 46 45 44 47 44 43 42
59 58 57 55 53 50 49 51 50 50 49 48 46 45 45 44 45 46 47 48 49 49 49 47 47 45 45 45 44 43 43 42
57 58 59 54 50 49 48 49 49 49 49 51 48 48 49 48 45 44 46 47 48 47 48 46 45 44 44 44 44 44 43 43
51 51 51 52 49 48 48 49 47 48 48 47 47 47 47 46 48 48 46 44 45 46 46 44 47 44 44 44 43 43 43 42
47 47 46 47 49 48 49 48 48 48 48 48 50 51 49 48 47 46 42 43 43 43 43 44 44 44 44 44 44 44 45 45
46 46 45 45 45 45 46 47 48 48 48 49 49 48 47 45 44 41 41 40 44 40 40 39 40 40 40 40 39 39 40 40
45 45 45 45 45 45 45 46 46 47 48 47 46 45 44 40 39 38 37 37 38 38 38 37 38 38 38 37 36 38 37 37
44 45 45 44 44 43 43 43 42 42 45 43 41 38 38 37 36 36 36 37 37 37 38 38 38 37 38 36 36 37 36 35
45 45 44 43 42 42 41 40 40 39 38 38 37 36 36 35 35 36 36 36 36 37 37 37 37 37 36 35 35 35 34 33
46 44 42 42 41 41 40 39 38 38 37 35 35 35 35 34 34 35 35 34 34 34 35 35 35 35 35 35 35 34 33 33
43 42 40 41 40 40 39 38 37 37 36 35 33 33 34 33 34 34 33 34 33 33 33 33 33 34 35 35 34 32 31 32
43 40 39 39 38 38 39 38 37 36 36 35 33 34 34 34 33 32 32 32 32 32 32 31 31 33 36 33 32 30 29 29
44 43 41 40 40 38 39 37 36 36 35 34 35 34 34 32 31 31 31 30 29 30 29 30 30 33 34 34 33 29 29 28
43 42 41 40 39 39 37 36 35 34 34 35 34 34 32 31 31 30 29 28 28 27 28 29 28 28 33 33 33 30 28 27
43 42 40 39 38 37 36 35 34 33 32 33 33 32 31 30 30 29 27 27 26 26 27 28 27 29 32 32 32 28 27 27
MSLP
1020.54 1020.32 1020.37 1021.90 1022.36 1022.60 1022.58 1022.69 1022.91 1023.11 1023.32 1023.56 1023.68 1023.80 1023.83 1023.97 1024.17 1024.26 1024.24 1024.27 1024.16 1024.05 1024.01 1023.90 1023.66 1023.50 1023.33 1023.03 1022.80 1022.47 1022.21 1021.81
1021.37 1021.27 1020.45 1022.07 1022.81 1022.91 1023.14 1023.14 1023.38 1023.37 1023.70 1023.92 1024.24 1024.80 1024.73 1024.66 1024.73 1024.80 1024.79 1024.61 1024.43 1024.38 1024.38 1024.27 1024.13 1024.15 1024.06 1023.72 1023.26 1022.86 1022.51 1022.18
1021.65 1021.25 1021.29 1022.45 1023.00 1023.25 1023.37 1023.32 1023.49 1023.66 1023.87 1024.14 1024.48 1024.87 1025.02 1025.04 1025.14 1025.03 1024.88 1024.72 1024.58 1024.45 1024.54 1024.56 1024.52 1024.51 1024.28 1024.06 1023.87 1023.71 1023.36 1022.99
1021.70 1021.14 1021.41 1022.39 1023.12 1023.31 1023.51 1023.68 1023.77 1023.88 1024.00 1024.46 1024.83 1025.05 1025.22 1025.38 1025.40 1025.33 1025.15 1024.84 1024.65 1024.66 1024.69 1024.72 1024.69 1024.69 1024.69 1024.52 1024.31 1024.15 1024.06 1023.59
1022.05 1021.92 1021.99 1022.51 1023.26 1023.71 1023.90 1024.22 1024.20 1024.35 1024.42 1024.76 1025.14 1025.56 1025.88 1026.02 1025.94 1025.84 1025.39 1024.99 1024.80 1024.73 1024.78 1024.87 1024.87 1024.86 1024.81 1024.64 1024.30 1024.39 1024.35 1024.15
1021.89 1022.45 1022.98 1022.56 1023.48 1024.18 1024.54 1024.75 1024.74 1024.90 1024.95 1025.20 1025.64 1026.05 1026.28 1026.41 1026.36 1026.19 1025.94 1025.54 1025.31 1025.11 1025.10 1025.16 1025.19 1025.13 1024.95 1024.71 1024.49 1024.37 1024.30 1024.25
1021.99 1021.79 1022.66 1023.51 1023.97 1024.56 1024.96 1025.14 1025.24 1025.41 1025.52 1025.86 1026.08 1026.38 1026.60 1026.70 1026.86 1026.77 1026.58 1026.40 1026.09 1025.99 1025.75 1025.62 1025.49 1025.32 1025.11 1024.85 1024.56 1024.40 1024.24 1024.15
1022.89 1023.09 1023.51 1023.80 1024.27 1024.94 1025.37 1025.60 1026.02 1025.98 1026.16 1026.45 1026.73 1026.83 1027.06 1027.40 1027.48 1027.53 1027.47 1027.38 1027.02 1026.73 1026.42 1026.31 1025.77 1025.63 1025.31 1025.05 1024.81 1024.49 1024.26 1024.17
1024.15 1024.47 1024.61 1024.71 1024.93 1025.33 1025.68 1026.21 1026.42 1026.43 1026.68 1027.06 1027.25 1027.50 1027.73 1027.96 1028.16 1028.25 1028.24 1028.07 1027.83 1027.49 1027.11 1026.83 1026.50 1026.17 1025.91 1025.61 1025.15 1024.89 1024.42 1024.23
1025.19 1025.46 1025.47 1025.55 1025.68 1025.97 1026.21 1026.49 1026.81 1027.09 1027.49 1027.71 1027.94 1028.28 1028.42 1028.80 1028.90 1028.74 1028.69 1028.62 1028.11 1027.97 1027.66 1027.39 1026.99 1026.67 1026.37 1026.08 1025.84 1025.36 1024.89 1024.55
1026.17 1026.16 1026.19 1026.41 1026.54 1026.73 1026.86 1027.16 1027.53 1027.92 1028.10 1028.37 1028.68 1028.95 1029.01 1029.22 1029.24 1029.22 1029.17 1028.97 1028.62 1028.25 1027.90 1027.56 1027.14 1026.77 1026.48 1026.21 1025.92 1025.41 1025.12 1024.89
1026.26 1026.41 1026.74 1026.85 1027.18 1027.43 1027.72 1027.98 1028.26 1028.67 1028.91 1029.30 1029.51 1029.66 1029.64 1029.59 1029.61 1029.49 1029.30 1028.99 1028.71 1028.42 1028.06 1027.65 1027.24 1026.85 1026.45 1026.17 1025.88 1025.45 1025.25 1025.02
1026.21 1026.68 1026.89 1027.44 1027.78 1028.12 1028.36 1028.64 1028.90 1029.28 1029.57 1029.83 1029.96 1029.96 1029.92 1029.84 1029.76 1029.59 1029.45 1029.25 1028.87 1028.57 1028.19 1027.75 1027.27 1026.89 1026.54 1026.25 1025.99 1025.71 1025.43 1025.03
1026.14 1026.75 1027.12 1027.77 1028.13 1028.44 1028.80 1029.10 1029.37 1029.65 1029.85 1030.08 1030.28 1030.18 1030.10 1029.94 1029.81 1029.78 1029.55 1029.22 1028.96 1028.70 1028.32 1028.04 1027.65 1027.20 1026.68 1026.28 1025.95 1025.67 1025.49 1025.06
1026.10 1026.67 1027.25 1027.75 1028.17 1028.54 1028.93 1029.31 1029.44 1029.71 1029.95 1030.17 1030.32 1030.30 1030.25 1030.01 1029.83 1029.71 1029.57 1029.34 1029.18 1028.82 1028.55 1028.22 1027.81 1027.27 1026.58 1026.21 1025.97 1025.76 1025.36 1024.86
1026.08 1026.69 1027.20 1027.74 1028.18 1028.50 1028.86 1029.14 1029.39 1029.63 1029.86 1030.08 1030.27 1030.28 1030.27 1030.02 1029.83 1029.75 1029.63 1029.50 1029.28 1029.05 1028.67 1028.35 1027.89 1027.24 1026.51 1026.31 1026.06 1025.74 1025.24 1024.59
1025.75 1026.43 1027.05 1027.61 1028.02 1028.37 1028.70 1029.09 1029.44 1029.61 1029.89 1030.19 1030.32 1030.21 1030.28 1030.16 1029.93 1029.93 1029.85 1029.69 1029.58 1029.26 1028.93 1028.51 1027.94 1027.38 1026.93 1026.38 1026.07 1025.52 1025.04 1024.49
1025.17 1026.09 1026.77 1027.39 1027.93 1028.18 1028.69 1029.18 1029.50 1029.80 1030.09 1030.34 1030.39 1030.42 1030.38 1030.26 1030.18 1030.15 1030.08 1029.93 1029.75 1029.42 1029.07 1028.56 1027.97 1027.53 1026.89 1026.35 1025.88 1025.38 1024.84 1024.24
1024.93 1025.85 1026.68 1027.28 1027.76 1028.19 1028.72 1029.17 1029.64 1030.01 1030.39 1030.43 1030.50 1030.54 1030.53 1030.43 1030.35 1030.36 1030.22 1030.01 1029.80 1029.39 1028.98 1028.47 1027.88 1027.44 1026.86 1026.18 1025.59 1025.05 1024.49 1023.79
Wind_Speed
5 9 13 8 7 6 6 6 7 7 5 5 4 5 5 5 5 5 7 5 6 6 5 6 6 5 6 6 5 4 3 8
5 6 14 8 4 6 5 7 5 4 4 4 4 3 3 4 4 6 6 5 6 6 4 5 5 5 5 5 4 5 3 8
6 7 9 3 5 5 5 6 5 3 3 3 3 3 2 3 2 4 5 6 6 5 5 5 6 4 6 6 5 4 3 5
4 6 8 6 5 5 5 5 5 4 6 4 4 3 3 4 4 3 5 6 5 5 5 4 5 4 4 4 5 6 4 3
3 3 6 8 5 3 4 4 5 4 4 4 3 2 2 1 2 3 5 7 7 6 6 5 5 3 5 4 4 3 3 4
8 3 6 4 6 4 5 5 6 4 6 6 5 4 2 2 3 6 7 6 7 7 6 6 6 5 5 6 6 5 2 2
5 2 5 4 5 6 5 6 4 5 6 6 6 6 3 5 5 5 6 5 7 9 7 6 6 6 6 6 6 6 5 5
8 9 6 4 6 7 5 4 6 5 7 7 6 7 8 7 8 7 8 6 6 9 8 7 6 5 6 6 6 6 6 6
7 7 7 6 6 6 7 7 6 7 8 9 10 10 7 7 8 6 5 5 5 8 8 9 10 11 10 10 7 8 10 8
8 7 8 10 10 8 8 10 10 10 10 9 11 9 10 8 7 5 4 5 6 6 6 7 7 6 7 7 6 8 8 7
6 7 9 9 10 10 12 11 11 10 10 9 9 9 7 5 5 6 6 5 5 6 6 6 6 6 6 6 6 7 5 6
7 8 8 10 8 9 9 9 10 9 9 8 7 5 5 5 5 5 5 5 6 6 7 7 7 6 7 7 7 6 6 7
7 8 9 7 8 8 8 7 9 7 6 6 6 5 5 5 5 6 6 5 4 5 7 9 8 9 9 8 8 7 9 10
8 7 8 7 7 7 7 6 7 6 6 6 5 5 5 5 5 5 5 5 6 7 8 9 9 9 9 6 10 9 11 11
6 6 6 7 6 7 6 6 6 6 6 6 5 5 4 4 4 5 6 6 6 7 7 7 7 8 8 11 10 12 12 12
9 8 7 6 6 6 6 6 6 5 6 6 4 4 4 5 5 6 6 6 6 6 7 7 6 9 8 12 11 12 13 15
10 10 9 7 6 6 6 6 6 5 6 5 4 5 5 5 6 6 6 6 6 6 6 6 9 8 19 19 19 13 14 15
12 11 9 7 7 6 6 6 6 6 5 4 4 4 5 5 5 5 6 6 6 6 6 7 9 8 19 22 23 13 13 14
11 9 8 7 6 6 6 6 6 6 4 4 4 4 4 4 5 5 5 4 6 5 6 8 8 8 20 21 25 13 13 14
Wind_Direction
104 102 84 80 78 92 98 94 95 92 82 74 56 53 45 40 34 33 32 26 28 32 23 16 10 9 2 356 347 344 330 343
134 113 85 105 92 96 104 111 112 101 71 70 46 53 31 42 36 32 28 23 27 33 25 17 12 16 351 353 327 345 340 351
161 126 98 124 140 135 122 116 125 101 91 80 101 106 67 73 15 29 23 17 17 16 16 9 12 359 0 1 9 341 334 1
155 118 131 148 163 160 145 132 121 109 99 98 71 59 36 22 3 355 352 1 2 12 5 7 1 9 354 345 351 6 337 327
140 153 165 166 190 181 126 106 99 84 111 96 97 108 84 331 333 333 347 4 353 354 356 1 356 349 347 329 338 329 354 329
158 163 256 159 153 156 110 111 101 107 98 98 93 79 56 2 3 9 359 347 356 357 13 1 353 353 341 342 339 336 307 291
38 56 151 138 115 112 119 131 110 83 85 82 94 91 62 37 15 14 6 2 11 15 4 4 359 349 346 334 320 320 315 302
54 52 53 103 135 135 135 134 70 67 75 66 46 57 56 50 40 35 30 14 17 10 7 354 359 351 354 343 338 336 336 321
69 58 54 49 102 127 124 94 90 69 67 63 64 61 61 54 47 43 32 17 15 4 13 14 11 9 4 0 353 347 346 335
84 76 71 73 70 63 98 89 77 75 76 71 66 59 63 60 45 40 35 11 13 8 13 4 356 353 354 354 348 337 330 341
120 103 93 89 81 79 76 75 77 76 73 70 68 67 64 58 48 38 24 4 0 1 358 348 339 343 349 348 335 321 340 342
131 109 100 91 86 82 83 81 81 75 78 77 75 65 58 52 48 24 16 7 1 1 350 344 341 341 341 333 328 331 348 340
135 127 111 104 100 96 94 93 92 92 92 87 77 67 56 50 39 18 12 358 353 350 356 354 346 341 336 334 338 338 337 330
137 132 120 123 116 112 111 109 109 111 102 95 75 59 51 47 34 11 348 359 7 4 356 345 339 336 327 344 340 342 332 322
151 135 135 134 133 130 124 118 120 118 104 91 74 46 41 41 25 3 10 10 8 353 340 330 328 332 329 346 345 328 322 320
167 156 151 145 133 132 130 125 123 119 97 82 64 37 32 28 18 20 18 2 353 334 329 318 323 339 342 337 333 331 325 316
172 164 159 160 155 151 137 128 121 108 93 79 46 40 24 14 26 25 3 349 335 324 323 322 337 339 335 335 336 327 323 315
173 171 167 160 162 149 148 141 126 104 96 71 49 36 17 21 35 9 349 333 320 314 317 323 331 332 332 334 333 326 319 314
170 163 156 155 152 132 128 127 124 114 101 73 52 27 11 47 20 350 325 315 309 313 316 326 325 328 329 332 332 325 315 311